Time,TemperatureF,DewpointF,PressureIn,WindDirection,WindDirectionDegrees,WindSpeedMPH,WindSpeedGustMPH,Humidity,HourlyPrecipIn,Conditions,Clouds,dailyrainin,SoftwareType,DateUTC
2013-06-09 00:00:00,61.9,47.5,29.98,ESE,119,8.5,-999.0,58,0.00,,,0.00,SSEC-RIG,2013-06-09 05:00:00,
2013-06-09 00:05:00,61.7,47.3,29.98,SE,125,11.2,-999.0,58,0.00,,,0.00,SSEC-RIG,2013-06-09 05:05:00,
2013-06-09 00:10:00,61.8,48.2,29.99,SE,132,11.8,-999.0,60,0.00,,,0.00,SSEC-RIG,2013-06-09 05:10:00,
2013-06-09 00:15:00,61.6,47.7,29.99,SE,132,9.8,-999.0,59,0.00,,,0.00,SSEC-RIG,2013-06-09 05:15:00,
2013-06-09 00:20:00,61.4,47.9,29.99,SE,132,10.5,-999.0,60,0.00,,,0.00,SSEC-RIG,2013-06-09 05:20:00,
2013-06-09 00:30:00,61.3,48.1,29.99,SE,132,8.4,-999.0,61,0.00,,,0.00,SSEC-RIG,2013-06-09 05:30:00,
2013-06-09 00:40:00,60.8,47.4,29.98,SE,127,11.6,-999.0,60,0.00,,,0.00,SSEC-RIG,2013-06-09 05:40:00,
2013-06-09 00:45:00,60.7,47.2,29.98,ESE,123,12.0,17.6,60,0.00,,,0.00,SSEC-RIG,2013-06-09 05:45:00,
2013-06-09 00:50:00,60.4,47.3,29.98,ESE,117,12.2,-999.0,61,0.00,,,0.00,SSEC-RIG,2013-06-09 05:50:00,
2013-06-09 00:55:00,60.3,47.6,29.98,ESE,123,11.3,-999.0,62,0.00,,,0.00,SSEC-RIG,2013-06-09 05:55:00,
2013-06-09 01:00:00,60.1,47.7,29.98,ESE,122,11.4,-999.0,63,0.00,,,0.00,SSEC-RIG,2013-06-09 06:00:00,
2013-06-09 01:10:00,59.5,47.1,29.97,ESE,123,14.7,17.8,63,0.00,,,0.00,SSEC-RIG,2013-06-09 06:10:00,
2013-06-09 01:15:00,59.5,47.4,29.98,SE,126,12.7,16.8,63,0.00,,,0.00,SSEC-RIG,2013-06-09 06:15:00,
2013-06-09 01:20:00,59.4,47.1,29.98,ESE,118,13.4,17.9,63,0.00,,,0.00,SSEC-RIG,2013-06-09 06:20:00,
2013-06-09 01:25:00,59.1,47.3,29.98,SE,128,13.2,-999.0,64,0.00,,,0.00,SSEC-RIG,2013-06-09 06:25:00,
2013-06-09 01:30:00,58.9,47.0,29.98,SE,127,13.8,16.4,64,0.00,,,0.00,SSEC-RIG,2013-06-09 06:30:00,
2013-06-09 01:35:00,58.8,47.3,29.97,SE,127,13.4,-999.0,65,0.00,,,0.00,SSEC-RIG,2013-06-09 06:35:00,
2013-06-09 01:40:00,58.7,47.1,29.97,ESE,122,12.8,16.0,64,0.00,,,0.00,SSEC-RIG,2013-06-09 06:40:00,
2013-06-09 01:50:00,58.5,46.9,29.97,ESE,117,12.7,-999.0,64,0.00,,,0.00,SSEC-RIG,2013-06-09 06:50:00,
2013-06-09 01:55:00,58.6,47.0,29.97,ESE,123,11.7,-999.0,64,0.00,,,0.00,SSEC-RIG,2013-06-09 06:55:00,
2013-06-09 02:00:00,58.4,46.8,29.97,SE,125,13.9,18.0,64,0.00,,,0.00,SSEC-RIG,2013-06-09 07:00:00,
2013-06-09 02:05:00,58.5,47.4,29.97,SE,130,11.8,-999.0,66,0.00,,,0.00,SSEC-RIG,2013-06-09 07:05:00,
2013-06-09 02:10:00,58.6,47.8,29.97,SE,132,11.0,16.1,66,0.00,,,0.00,SSEC-RIG,2013-06-09 07:10:00,
2013-06-09 02:20:00,58.4,47.1,29.97,SE,128,11.7,-999.0,65,0.00,,,0.00,SSEC-RIG,2013-06-09 07:20:00,
2013-06-09 02:25:00,58.3,47.2,29.96,SE,124,10.8,-999.0,65,0.00,,,0.00,SSEC-RIG,2013-06-09 07:25:00,
2013-06-09 02:30:00,58.5,47.6,29.97,ESE,115,7.6,-999.0,66,0.00,,,0.00,SSEC-RIG,2013-06-09 07:30:00,
2013-06-09 02:35:00,58.3,47.3,29.96,ESE,121,11.0,-999.0,66,0.00,,,0.00,SSEC-RIG,2013-06-09 07:35:00,
2013-06-09 02:40:00,58.3,47.7,29.96,SE,126,11.2,-999.0,67,0.00,,,0.00,SSEC-RIG,2013-06-09 07:40:00,
2013-06-09 02:45:00,58.1,47.6,29.96,SE,125,10.0,-999.0,67,0.00,,,0.00,SSEC-RIG,2013-06-09 07:45:00,
2013-06-09 02:50:00,57.8,47.0,29.96,ESE,123,12.2,-999.0,66,0.00,,,0.00,SSEC-RIG,2013-06-09 07:50:00,
2013-06-09 02:55:00,57.9,47.4,29.96,ESE,122,12.3,-999.0,67,0.00,,,0.00,SSEC-RIG,2013-06-09 07:55:00,
2013-06-09 03:00:00,57.9,47.7,29.96,ESE,119,10.0,-999.0,68,0.00,,,0.00,SSEC-RIG,2013-06-09 08:00:00,
2013-06-09 03:05:00,57.8,47.5,29.96,ESE,116,11.7,-999.0,68,0.00,,,0.00,SSEC-RIG,2013-06-09 08:05:00,
2013-06-09 03:10:00,57.8,47.8,29.96,ESE,119,11.4,-999.0,68,0.00,,,0.00,SSEC-RIG,2013-06-09 08:10:00,
2013-06-09 03:15:00,57.7,47.8,29.96,ESE,121,10.1,-999.0,69,0.00,,,0.00,SSEC-RIG,2013-06-09 08:15:00,
2013-06-09 03:20:00,58.1,48.9,29.96,SE,125,9.5,-999.0,71,0.00,,,0.00,SSEC-RIG,2013-06-09 08:20:00,
2013-06-09 03:30:00,57.5,47.4,29.96,ESE,122,11.4,-999.0,68,0.00,,,0.00,SSEC-RIG,2013-06-09 08:30:00,
2013-06-09 03:35:00,57.7,48.0,29.96,ESE,120,9.9,-999.0,69,0.00,,,0.00,SSEC-RIG,2013-06-09 08:35:00,
2013-06-09 03:40:00,57.8,48.3,29.96,ESE,119,10.3,-999.0,70,0.00,,,0.00,SSEC-RIG,2013-06-09 08:40:00,
2013-06-09 03:45:00,57.6,48.0,29.96,ESE,120,10.4,-999.0,69,0.00,,,0.00,SSEC-RIG,2013-06-09 08:45:00,
2013-06-09 03:50:00,57.5,48.1,29.96,SE,124,10.5,-999.0,70,0.00,,,0.00,SSEC-RIG,2013-06-09 08:50:00,
2013-06-09 03:55:00,57.5,48.4,29.96,SE,124,9.7,-999.0,70,0.00,,,0.00,SSEC-RIG,2013-06-09 08:55:00,
2013-06-09 04:00:00,57.5,48.2,29.96,SE,126,9.6,-999.0,70,0.00,,,0.00,SSEC-RIG,2013-06-09 09:00:00,
2013-06-09 04:05:00,57.7,48.9,29.96,ESE,119,8.7,-999.0,72,0.00,,,0.00,SSEC-RIG,2013-06-09 09:05:00,
2013-06-09 04:10:00,57.8,49.0,29.96,SE,124,8.3,-999.0,72,0.00,,,0.00,SSEC-RIG,2013-06-09 09:10:00,
2013-06-09 04:15:00,57.8,48.5,29.96,ESE,121,8.9,-999.0,70,0.00,,,0.00,SSEC-RIG,2013-06-09 09:15:00,
2013-06-09 04:20:00,57.8,48.6,29.96,ESE,111,7.8,-999.0,70,0.00,,,0.00,SSEC-RIG,2013-06-09 09:20:00,
2013-06-09 04:25:00,57.8,48.5,29.96,ESE,113,6.9,-999.0,70,0.00,,,0.00,SSEC-RIG,2013-06-09 09:25:00,
2013-06-09 04:30:00,57.8,48.6,29.96,SE,124,8.5,-999.0,70,0.00,,,0.00,SSEC-RIG,2013-06-09 09:30:00,
2013-06-09 04:35:00,57.9,48.9,29.96,ESE,118,8.0,-999.0,71,0.00,,,0.00,SSEC-RIG,2013-06-09 09:35:00,
2013-06-09 04:40:00,58.0,49.0,29.96,ESE,120,8.1,-999.0,71,0.00,,,0.00,SSEC-RIG,2013-06-09 09:40:00,
2013-06-09 04:45:00,58.1,49.1,29.96,ESE,119,6.7,-999.0,71,0.00,,,0.00,SSEC-RIG,2013-06-09 09:45:00,
2013-06-09 04:50:00,57.9,48.6,29.96,ESE,120,7.2,-999.0,70,0.00,,,0.00,SSEC-RIG,2013-06-09 09:50:00,
2013-06-09 05:00:00,58.2,49.1,29.96,ESE,123,6.9,-999.0,71,0.00,,,0.00,SSEC-RIG,2013-06-09 10:00:00,
2013-06-09 05:05:00,58.1,48.8,29.96,ESE,119,4.9,-999.0,70,0.00,,,0.00,SSEC-RIG,2013-06-09 10:05:00,
2013-06-09 05:10:00,58.1,49.0,29.96,ESE,118,5.1,-999.0,71,0.00,,,0.00,SSEC-RIG,2013-06-09 10:10:00,
2013-06-09 05:15:00,58.1,49.0,29.96,ESE,123,5.6,-999.0,71,0.00,,,0.00,SSEC-RIG,2013-06-09 10:15:00,
2013-06-09 05:20:00,57.9,48.7,29.96,SE,126,6.0,-999.0,70,0.00,,,0.00,SSEC-RIG,2013-06-09 10:20:00,
2013-06-09 05:25:00,58.0,49.3,29.96,ESE,117,4.8,-999.0,72,0.00,,,0.00,SSEC-RIG,2013-06-09 10:25:00,
2013-06-09 05:30:00,58.2,49.5,29.96,ESE,114,6.4,-999.0,72,0.00,,,0.00,SSEC-RIG,2013-06-09 10:30:00,
2013-06-09 05:40:00,58.0,48.5,29.95,East,100,8.2,-999.0,70,0.00,,,0.00,SSEC-RIG,2013-06-09 10:40:00,
2013-06-09 05:45:00,57.9,48.7,29.95,ESE,109,8.7,-999.0,70,0.00,,,0.00,SSEC-RIG,2013-06-09 10:45:00,
2013-06-09 05:50:00,57.8,48.6,29.95,ESE,110,8.9,-999.0,70,0.00,,,0.00,SSEC-RIG,2013-06-09 10:50:00,
2013-06-09 05:55:00,58.0,49.1,29.95,ESE,106,8.5,-999.0,71,0.00,,,0.00,SSEC-RIG,2013-06-09 10:55:00,
2013-06-09 06:00:00,58.1,49.2,29.95,ESE,108,8.9,-999.0,71,0.00,,,0.00,SSEC-RIG,2013-06-09 11:00:00,
2013-06-09 06:05:00,57.9,49.0,29.94,ESE,110,9.2,-999.0,71,0.00,,,0.00,SSEC-RIG,2013-06-09 11:05:00,
2013-06-09 06:10:00,58.0,49.1,29.94,ESE,111,10.0,-999.0,71,0.00,,,0.00,SSEC-RIG,2013-06-09 11:10:00,
2013-06-09 06:20:00,58.0,49.2,29.94,ESE,111,9.0,-999.0,71,0.00,,,0.00,SSEC-RIG,2013-06-09 11:20:00,
2013-06-09 06:25:00,58.1,49.4,29.94,ESE,117,10.2,-999.0,72,0.00,,,0.00,SSEC-RIG,2013-06-09 11:25:00,
2013-06-09 06:35:00,58.3,49.5,29.94,ESE,120,11.7,16.4,71,0.00,,,0.00,SSEC-RIG,2013-06-09 11:35:00,
2013-06-09 06:40:00,58.5,49.9,29.94,ESE,118,10.7,-999.0,72,0.00,,,0.00,SSEC-RIG,2013-06-09 11:40:00,
2013-06-09 06:45:00,58.3,49.5,29.94,ESE,122,11.4,-999.0,72,0.00,,,0.00,SSEC-RIG,2013-06-09 11:45:00,
2013-06-09 06:50:00,58.0,48.9,29.93,ESE,118,13.5,16.1,71,0.00,,,0.00,SSEC-RIG,2013-06-09 11:50:00,
2013-06-09 06:55:00,58.1,49.2,29.93,ESE,123,12.5,17.3,71,0.00,,,0.00,SSEC-RIG,2013-06-09 11:55:00,
2013-06-09 07:00:00,57.9,49.0,29.93,ESE,120,12.9,-999.0,71,0.00,,,0.00,SSEC-RIG,2013-06-09 12:00:00,
2013-06-09 07:05:00,58.3,49.8,29.93,ESE,121,11.1,-999.0,72,0.00,,,0.00,SSEC-RIG,2013-06-09 12:05:00,
2013-06-09 07:10:00,58.4,50.1,29.93,SE,127,10.6,-999.0,73,0.00,,,0.00,SSEC-RIG,2013-06-09 12:10:00,
2013-06-09 07:15:00,58.8,49.8,29.93,SE,125,11.2,-999.0,71,0.00,,,0.00,SSEC-RIG,2013-06-09 12:15:00,
2013-06-09 07:20:00,59.2,50.4,29.93,SE,129,9.5,-999.0,72,0.00,,,0.00,SSEC-RIG,2013-06-09 12:20:00,
2013-06-09 07:25:00,59.3,49.8,29.93,SE,124,11.2,-999.0,70,0.00,,,0.00,SSEC-RIG,2013-06-09 12:25:00,
2013-06-09 07:30:00,59.6,50.2,29.93,SE,124,9.4,-999.0,70,0.00,,,0.00,SSEC-RIG,2013-06-09 12:30:00,
2013-06-09 07:35:00,60.1,50.4,29.93,SE,128,11.3,-999.0,69,0.00,,,0.00,SSEC-RIG,2013-06-09 12:35:00,
2013-06-09 07:40:00,60.4,50.5,29.93,SE,129,9.7,-999.0,69,0.00,,,0.00,SSEC-RIG,2013-06-09 12:40:00,
2013-06-09 07:45:00,60.5,50.1,29.93,SE,128,10.8,-999.0,68,0.00,,,0.00,SSEC-RIG,2013-06-09 12:45:00,
2013-06-09 07:50:00,60.8,50.1,29.93,SE,132,9.4,-999.0,67,0.00,,,0.00,SSEC-RIG,2013-06-09 12:50:00,
2013-06-09 07:55:00,60.9,49.9,29.93,SE,129,11.2,-999.0,66,0.00,,,0.00,SSEC-RIG,2013-06-09 12:55:00,
2013-06-09 08:00:00,60.9,49.7,29.93,SE,128,12.5,-999.0,65,0.00,,,0.00,SSEC-RIG,2013-06-09 13:00:00,
2013-06-09 08:05:00,61.2,50.0,29.93,SE,130,12.0,-999.0,66,0.00,,,0.00,SSEC-RIG,2013-06-09 13:05:00,
2013-06-09 08:10:00,61.5,50.3,29.93,SE,127,11.6,-999.0,66,0.00,,,0.00,SSEC-RIG,2013-06-09 13:10:00,
2013-06-09 08:15:00,61.7,50.6,29.92,SE,125,11.7,-999.0,66,0.00,,,0.00,SSEC-RIG,2013-06-09 13:15:00,
2013-06-09 08:20:00,62.0,50.6,29.92,ESE,123,10.6,-999.0,65,0.00,,,0.00,SSEC-RIG,2013-06-09 13:20:00,
2013-06-09 08:25:00,62.0,50.7,29.92,SE,124,12.5,-999.0,66,0.00,,,0.00,SSEC-RIG,2013-06-09 13:25:00,
2013-06-09 08:30:00,62.2,50.5,29.92,SE,126,13.0,-999.0,65,0.00,,,0.00,SSEC-RIG,2013-06-09 13:30:00,
2013-06-09 08:35:00,62.2,50.9,29.92,SE,128,13.6,16.5,66,0.00,,,0.00,SSEC-RIG,2013-06-09 13:35:00,
2013-06-09 08:40:00,63.1,51.9,29.92,SE,129,12.9,16.2,66,0.00,,,0.00,SSEC-RIG,2013-06-09 13:40:00,
2013-06-09 08:45:00,63.2,52.0,29.92,SE,131,12.9,16.9,66,0.00,,,0.00,SSEC-RIG,2013-06-09 13:45:00,
2013-06-09 08:50:00,63.5,51.8,29.92,SE,131,14.3,18.2,65,0.00,,,0.00,SSEC-RIG,2013-06-09 13:50:00,
2013-06-09 08:55:00,63.5,51.9,29.92,SE,133,14.9,17.8,65,0.00,,,0.00,SSEC-RIG,2013-06-09 13:55:00,
2013-06-09 09:00:00,64.1,52.3,29.92,SE,134,10.0,-999.0,65,0.00,,,0.00,SSEC-RIG,2013-06-09 14:00:00,
2013-06-09 09:05:00,63.6,51.8,29.92,SE,127,14.2,16.6,65,0.00,,,0.00,SSEC-RIG,2013-06-09 14:05:00,
2013-06-09 09:10:00,63.5,51.9,29.92,SE,128,14.3,16.4,65,0.00,,,0.00,SSEC-RIG,2013-06-09 14:10:00,
2013-06-09 09:15:00,64.1,52.9,29.92,SE,130,13.5,16.8,66,0.00,,,0.00,SSEC-RIG,2013-06-09 14:15:00,
2013-06-09 09:20:00,64.3,52.7,29.91,SE,127,14.0,17.0,65,0.00,,,0.00,SSEC-RIG,2013-06-09 14:20:00,
2013-06-09 09:25:00,65.2,53.6,29.91,SE,130,14.4,17.7,65,0.00,,,0.00,SSEC-RIG,2013-06-09 14:25:00,
2013-06-09 09:30:00,65.8,54.0,29.91,SE,129,13.2,18.3,65,0.00,,,0.00,SSEC-RIG,2013-06-09 14:30:00,
2013-06-09 09:35:00,66.5,54.5,29.90,SE,133,15.0,19.2,65,0.00,,,0.00,SSEC-RIG,2013-06-09 14:35:00,
2013-06-09 09:40:00,66.7,54.1,29.90,SE,127,16.6,20.5,63,0.00,,,0.00,SSEC-RIG,2013-06-09 14:40:00,
2013-06-09 09:45:00,67.6,55.0,29.90,SE,132,14.6,21.2,63,0.00,,,0.00,SSEC-RIG,2013-06-09 14:45:00,
2013-06-09 09:50:00,68.1,55.4,29.90,SE,131,13.6,22.2,63,0.00,,,0.00,SSEC-RIG,2013-06-09 14:50:00,
2013-06-09 09:55:00,68.0,55.3,29.89,SE,130,15.4,21.1,63,0.00,,,0.00,SSEC-RIG,2013-06-09 14:55:00,
2013-06-09 10:00:00,68.1,55.1,29.89,SE,132,16.2,21.4,62,0.00,,,0.00,SSEC-RIG,2013-06-09 15:00:00,
2013-06-09 10:05:00,68.5,55.6,29.89,SE,134,15.2,20.3,63,0.00,,,0.00,SSEC-RIG,2013-06-09 15:05:00,
2013-06-09 10:10:00,68.8,55.6,29.89,SE,136,15.5,21.3,62,0.00,,,0.00,SSEC-RIG,2013-06-09 15:10:00,
2013-06-09 10:15:00,69.4,56.0,29.89,SE,136,13.5,20.8,62,0.00,,,0.00,SSEC-RIG,2013-06-09 15:15:00,
2013-06-09 10:20:00,69.8,55.6,29.89,SE,134,15.5,20.4,60,0.00,,,0.00,SSEC-RIG,2013-06-09 15:20:00,
2013-06-09 10:25:00,70.0,55.7,29.89,SE,136,15.3,20.8,59,0.00,,,0.00,SSEC-RIG,2013-06-09 15:25:00,
2013-06-09 10:30:00,70.3,56.2,29.89,SE,139,10.9,16.8,60,0.00,,,0.00,SSEC-RIG,2013-06-09 15:30:00,
2013-06-09 10:35:00,70.6,56.2,29.89,SE,134,14.7,20.4,59,0.00,,,0.00,SSEC-RIG,2013-06-09 15:35:00,
2013-06-09 10:45:00,70.8,55.8,29.89,SE,138,17.7,21.3,58,0.00,,,0.00,SSEC-RIG,2013-06-09 15:45:00,
2013-06-09 10:50:00,71.4,56.4,29.88,SE,141,14.1,20.4,58,0.00,,,0.00,SSEC-RIG,2013-06-09 15:50:00,
2013-06-09 10:55:00,71.7,56.0,29.88,SE,136,17.8,24.0,57,0.00,,,0.00,SSEC-RIG,2013-06-09 15:55:00,
2013-06-09 11:00:00,71.9,56.2,29.88,SE,136,16.7,22.4,57,0.00,,,0.00,SSEC-RIG,2013-06-09 16:00:00,
2013-06-09 11:05:00,72.5,55.9,29.88,SE,136,17.4,22.2,55,0.00,,,0.00,SSEC-RIG,2013-06-09 16:05:00,
2013-06-09 11:10:00,72.9,55.4,29.88,SE,141,18.9,23.5,53,0.00,,,0.00,SSEC-RIG,2013-06-09 16:10:00,
2013-06-09 11:15:00,73.3,55.0,29.88,SSE,163,17.0,22.7,52,0.00,,,0.00,SSEC-RIG,2013-06-09 16:15:00,
2013-06-09 11:20:00,73.7,53.1,29.87,SSE,158,24.9,28.7,48,0.00,,,0.00,SSEC-RIG,2013-06-09 16:20:00,
2013-06-09 11:25:00,74.0,53.3,29.87,SSE,152,24.3,30.9,48,0.00,,,0.00,SSEC-RIG,2013-06-09 16:25:00,
2013-06-09 11:30:00,74.4,53.7,29.87,SSE,152,22.6,31.5,48,0.00,,,0.00,SSEC-RIG,2013-06-09 16:30:00,
2013-06-09 11:35:00,74.2,53.3,29.87,SSE,159,21.9,28.2,47,0.00,,,0.00,SSEC-RIG,2013-06-09 16:35:00,
2013-06-09 11:40:00,74.3,53.5,29.87,SSE,166,19.4,28.1,47,0.00,,,0.00,SSEC-RIG,2013-06-09 16:40:00,
2013-06-09 11:45:00,74.2,52.8,29.87,SSE,158,23.9,28.1,46,0.00,,,0.00,SSEC-RIG,2013-06-09 16:45:00,
2013-06-09 11:50:00,74.0,52.5,29.86,SSE,159,23.4,27.4,46,0.00,,,0.00,SSEC-RIG,2013-06-09 16:50:00,
2013-06-09 11:55:00,74.2,52.8,29.86,SSE,154,21.9,29.1,47,0.00,,,0.00,SSEC-RIG,2013-06-09 16:55:00,
2013-06-09 12:00:00,74.5,52.8,29.86,SSE,157,21.9,28.9,46,0.00,,,0.00,SSEC-RIG,2013-06-09 17:00:00,
2013-06-09 12:05:00,74.5,53.1,29.86,SSE,158,21.2,28.8,46,0.00,,,0.00,SSEC-RIG,2013-06-09 17:05:00,
2013-06-09 12:10:00,74.8,53.6,29.86,SSE,158,19.5,29.7,47,0.00,,,0.00,SSEC-RIG,2013-06-09 17:10:00,
2013-06-09 12:15:00,74.9,53.0,29.86,SSE,158,24.7,30.5,46,0.00,,,0.00,SSEC-RIG,2013-06-09 17:15:00,
2013-06-09 12:20:00,75.2,53.4,29.85,SSE,156,26.0,36.2,46,0.00,,,0.00,SSEC-RIG,2013-06-09 17:20:00,
2013-06-09 12:25:00,75.3,54.0,29.86,SSE,157,18.9,25.8,47,0.00,,,0.00,SSEC-RIG,2013-06-09 17:25:00,
2013-06-09 12:30:00,75.7,54.4,29.86,SSE,153,18.2,33.7,47,0.00,,,0.00,SSEC-RIG,2013-06-09 17:30:00,
2013-06-09 12:35:00,75.3,53.9,29.85,SSE,164,23.9,32.0,47,0.00,,,0.00,SSEC-RIG,2013-06-09 17:35:00,
2013-06-09 12:40:00,75.3,54.5,29.85,SSE,158,20.9,28.5,48,0.00,,,0.00,SSEC-RIG,2013-06-09 17:40:00,
2013-06-09 12:45:00,75.6,54.6,29.85,SSE,161,19.7,28.5,47,0.00,,,0.00,SSEC-RIG,2013-06-09 17:45:00,
2013-06-09 12:50:00,75.6,54.1,29.85,SSE,157,23.6,31.5,47,0.00,,,0.00,SSEC-RIG,2013-06-09 17:50:00,
2013-06-09 12:55:00,75.8,54.9,29.85,SSE,153,19.0,27.8,47,0.00,,,0.00,SSEC-RIG,2013-06-09 17:55:00,
2013-06-09 13:00:00,75.9,55.0,29.84,SSE,152,19.0,26.0,48,0.00,,,0.00,SSEC-RIG,2013-06-09 18:00:00,
2013-06-09 13:05:00,75.8,55.1,29.84,SSE,151,20.7,29.8,48,0.00,,,0.00,SSEC-RIG,2013-06-09 18:05:00,
2013-06-09 13:10:00,75.6,55.5,29.84,SSE,162,18.6,27.3,49,0.00,,,0.00,SSEC-RIG,2013-06-09 18:10:00,
2013-06-09 13:15:00,75.5,55.2,29.84,SSE,160,21.6,26.4,49,0.00,,,0.00,SSEC-RIG,2013-06-09 18:15:00,
2013-06-09 13:25:00,75.8,55.4,29.84,SSE,154,20.2,29.4,48,0.00,,,0.00,SSEC-RIG,2013-06-09 18:25:00,
2013-06-09 13:30:00,76.0,55.6,29.84,SSE,161,19.4,25.8,48,0.00,,,0.00,SSEC-RIG,2013-06-09 18:30:00,
2013-06-09 13:35:00,75.9,55.4,29.83,SSE,149,21.0,26.6,48,0.00,,,0.00,SSEC-RIG,2013-06-09 18:35:00,
2013-06-09 13:40:00,75.7,54.9,29.83,SSE,147,21.4,27.9,48,0.00,,,0.00,SSEC-RIG,2013-06-09 18:40:00,
2013-06-09 13:45:00,75.7,55.6,29.83,SSE,156,18.1,24.7,49,0.00,,,0.00,SSEC-RIG,2013-06-09 18:45:00,
2013-06-09 13:50:00,75.9,56.2,29.83,SSE,152,18.3,24.7,50,0.00,,,0.00,SSEC-RIG,2013-06-09 18:50:00,
2013-06-09 13:55:00,75.7,55.7,29.83,SSE,151,19.3,25.8,49,0.00,,,0.00,SSEC-RIG,2013-06-09 18:55:00,
2013-06-09 14:00:00,75.6,55.4,29.83,SSE,162,20.2,28.0,49,0.00,,,0.00,SSEC-RIG,2013-06-09 19:00:00,
2013-06-09 14:05:00,75.8,55.5,29.83,SSE,167,18.5,25.2,49,0.00,,,0.00,SSEC-RIG,2013-06-09 19:05:00,
2013-06-09 14:10:00,75.7,55.8,29.83,SSE,160,17.0,22.8,49,0.00,,,0.00,SSEC-RIG,2013-06-09 19:10:00,
2013-06-09 14:15:00,75.8,56.0,29.83,SSE,156,17.2,23.5,49,0.00,,,0.00,SSEC-RIG,2013-06-09 19:15:00,
2013-06-09 14:20:00,76.0,55.6,29.82,SSE,147,20.2,27.0,49,0.00,,,0.00,SSEC-RIG,2013-06-09 19:20:00,
2013-06-09 14:25:00,76.2,55.9,29.82,SE,144,19.3,26.4,49,0.00,,,0.00,SSEC-RIG,2013-06-09 19:25:00,
2013-06-09 14:30:00,76.6,55.6,29.82,SE,145,21.4,26.2,48,0.00,,,0.00,SSEC-RIG,2013-06-09 19:30:00,
2013-06-09 14:35:00,76.5,57.0,29.82,SE,144,14.5,23.6,50,0.00,,,0.00,SSEC-RIG,2013-06-09 19:35:00,
2013-06-09 14:40:00,76.3,55.7,29.82,SSE,156,17.7,25.3,48,0.00,,,0.00,SSEC-RIG,2013-06-09 19:40:00,
2013-06-09 14:45:00,76.2,55.2,29.82,SSE,159,19.9,26.9,47,0.00,,,0.00,SSEC-RIG,2013-06-09 19:45:00,
2013-06-09 14:50:00,76.1,56.9,29.81,SE,139,14.9,20.6,51,0.00,,,0.00,SSEC-RIG,2013-06-09 19:50:00,
2013-06-09 14:55:00,75.8,56.3,29.81,SSE,149,17.9,24.3,50,0.00,,,0.00,SSEC-RIG,2013-06-09 19:55:00,
2013-06-09 15:00:00,74.9,57.6,29.82,SSE,150,13.1,19.2,54,0.02,,,0.02,SSEC-RIG,2013-06-09 20:00:00,
2013-06-09 15:10:00,74.8,58.0,29.81,SSE,148,13.5,24.0,55,0.00,,,0.02,SSEC-RIG,2013-06-09 20:10:00,
2013-06-09 15:15:00,75.3,56.0,29.81,SSE,150,16.5,23.6,50,0.00,,,0.02,SSEC-RIG,2013-06-09 20:15:00,
2013-06-09 15:20:00,75.7,55.7,29.81,SSE,158,16.7,24.3,49,0.00,,,0.02,SSEC-RIG,2013-06-09 20:20:00,
2013-06-09 15:25:00,75.8,55.1,29.81,SSE,167,20.5,25.2,48,0.00,,,0.02,SSEC-RIG,2013-06-09 20:25:00,
2013-06-09 15:30:00,75.9,54.6,29.80,SSE,160,20.5,27.8,47,0.00,,,0.02,SSEC-RIG,2013-06-09 20:30:00,
2013-06-09 15:35:00,75.8,54.8,29.80,SSE,160,16.9,20.8,47,0.00,,,0.02,SSEC-RIG,2013-06-09 20:35:00,
2013-06-09 15:40:00,75.7,54.7,29.80,SSE,160,16.2,19.4,47,0.00,,,0.02,SSEC-RIG,2013-06-09 20:40:00,
2013-06-09 15:45:00,75.9,55.0,29.80,SSE,151,14.9,20.6,48,0.00,,,0.02,SSEC-RIG,2013-06-09 20:45:00,
2013-06-09 15:50:00,76.1,56.2,29.80,SE,145,11.7,-999.0,49,0.00,,,0.02,SSEC-RIG,2013-06-09 20:50:00,
2013-06-09 15:55:00,76.3,57.2,29.80,SE,145,11.2,20.2,51,0.00,,,0.02,SSEC-RIG,2013-06-09 20:55:00,
2013-06-09 16:00:00,76.3,55.2,29.80,SSE,150,14.8,20.3,47,0.00,,,0.02,SSEC-RIG,2013-06-09 21:00:00,
2013-06-09 16:05:00,76.4,56.0,29.79,SSE,152,11.6,-999.0,49,0.00,,,0.02,SSEC-RIG,2013-06-09 21:05:00,
2013-06-09 16:10:00,76.3,55.5,29.79,SSE,154,14.5,23.3,48,0.00,,,0.02,SSEC-RIG,2013-06-09 21:10:00,
2013-06-09 16:15:00,76.3,54.6,29.79,SSE,159,22.8,29.0,46,0.00,,,0.02,SSEC-RIG,2013-06-09 21:15:00,
2013-06-09 16:20:00,76.2,55.7,29.79,SSE,151,15.5,21.7,48,0.00,,,0.02,SSEC-RIG,2013-06-09 21:20:00,
2013-06-09 16:25:00,76.2,55.8,29.79,SSE,148,15.1,20.4,49,0.00,,,0.02,SSEC-RIG,2013-06-09 21:25:00,
2013-06-09 16:30:00,76.4,56.2,29.79,SE,146,14.1,22.4,49,0.00,,,0.02,SSEC-RIG,2013-06-09 21:30:00,
2013-06-09 16:35:00,76.5,55.7,29.79,SE,146,15.6,20.8,48,0.00,,,0.02,SSEC-RIG,2013-06-09 21:35:00,
2013-06-09 16:40:00,76.5,55.6,29.79,SSE,149,16.2,21.0,48,0.00,,,0.02,SSEC-RIG,2013-06-09 21:40:00,
2013-06-09 16:50:00,76.8,55.9,29.78,SSE,151,16.7,29.0,48,0.00,,,0.02,SSEC-RIG,2013-06-09 21:50:00,
2013-06-09 16:55:00,77.1,54.7,29.78,SSE,156,20.1,27.3,45,0.00,,,0.02,SSEC-RIG,2013-06-09 21:55:00,
2013-06-09 17:00:00,77.2,54.1,29.78,SSE,161,19.0,25.9,44,0.00,,,0.02,SSEC-RIG,2013-06-09 22:00:00,
2013-06-09 17:05:00,77.1,55.3,29.78,SSE,148,15.6,20.7,46,0.00,,,0.02,SSEC-RIG,2013-06-09 22:05:00,
2013-06-09 17:10:00,77.1,56.3,29.78,SE,138,17.2,26.1,48,0.00,,,0.02,SSEC-RIG,2013-06-09 22:10:00,
2013-06-09 17:15:00,76.9,55.6,29.78,SE,138,20.0,28.5,47,0.00,,,0.02,SSEC-RIG,2013-06-09 22:15:00,
2013-06-09 17:20:00,76.8,55.3,29.78,SSE,147,18.3,27.4,47,0.00,,,0.02,SSEC-RIG,2013-06-09 22:20:00,
2013-06-09 17:25:00,76.7,55.0,29.78,SSE,148,19.2,25.7,46,0.00,,,0.02,SSEC-RIG,2013-06-09 22:25:00,
2013-06-09 17:35:00,76.7,55.6,29.78,SE,144,17.7,26.7,47,0.00,,,0.02,SSEC-RIG,2013-06-09 22:35:00,
2013-06-09 17:40:00,76.5,55.0,29.78,SSE,149,19.0,27.3,46,0.00,,,0.02,SSEC-RIG,2013-06-09 22:40:00,
2013-06-09 17:45:00,76.4,54.7,29.78,SSE,151,17.9,22.6,46,0.00,,,0.02,SSEC-RIG,2013-06-09 22:45:00,
2013-06-09 17:50:00,76.4,55.6,29.78,SE,145,16.0,24.9,48,0.00,,,0.02,SSEC-RIG,2013-06-09 22:50:00,
2013-06-09 17:55:00,75.9,55.0,29.78,SSE,147,20.8,26.8,48,0.00,,,0.02,SSEC-RIG,2013-06-09 22:55:00,
2013-06-09 18:00:00,75.5,55.3,29.78,SSE,155,17.9,23.4,49,0.00,,,0.02,SSEC-RIG,2013-06-09 23:00:00,
2013-06-09 18:05:00,75.0,55.7,29.78,SSE,164,15.4,19.0,50,0.00,,,0.02,SSEC-RIG,2013-06-09 23:05:00,
2013-06-09 18:10:00,74.7,55.7,29.79,South,172,13.7,18.3,51,0.00,,,0.02,SSEC-RIG,2013-06-09 23:10:00,
2013-06-09 18:15:00,74.4,56.0,29.79,South,171,12.9,16.4,52,0.00,,,0.02,SSEC-RIG,2013-06-09 23:15:00,
2013-06-09 18:20:00,74.0,56.0,29.78,SSE,157,9.8,-999.0,52,0.00,,,0.02,SSEC-RIG,2013-06-09 23:20:00,
2013-06-09 18:25:00,74.5,58.5,29.78,SE,140,6.3,-999.0,57,0.00,,,0.02,SSEC-RIG,2013-06-09 23:25:00,
2013-06-09 18:30:00,74.4,57.3,29.78,SE,134,11.0,-999.0,55,0.00,,,0.02,SSEC-RIG,2013-06-09 23:30:00,
2013-06-09 18:35:00,74.1,58.4,29.78,ESE,121,11.8,16.4,57,0.00,,,0.02,SSEC-RIG,2013-06-09 23:35:00,
2013-06-09 18:40:00,74.1,58.6,29.78,SE,127,15.0,20.6,58,0.00,,,0.02,SSEC-RIG,2013-06-09 23:40:00,
2013-06-09 18:50:00,74.1,56.9,29.77,SE,128,20.1,26.6,54,0.00,,,0.02,SSEC-RIG,2013-06-09 23:50:00,
2013-06-09 18:55:00,74.2,56.7,29.77,SE,126,21.1,28.0,54,0.00,,,0.02,SSEC-RIG,2013-06-09 23:55:00,
2013-06-09 19:00:00,74.0,56.5,29.78,SE,126,22.8,28.5,53,0.00,,,0.02,SSEC-RIG,2013-06-10 00:00:00,
2013-06-09 19:05:00,74.0,56.0,29.77,SE,128,25.0,29.6,53,0.00,,,0.00,SSEC-RIG,2013-06-10 00:05:00,
2013-06-09 19:10:00,73.9,56.7,29.77,SE,126,20.2,27.6,54,0.00,,,0.00,SSEC-RIG,2013-06-10 00:10:00,
2013-06-09 19:15:00,73.6,56.2,29.77,SE,126,22.2,27.1,54,0.00,,,0.00,SSEC-RIG,2013-06-10 00:15:00,
2013-06-09 19:20:00,73.4,56.5,29.77,SE,126,20.0,24.1,55,0.00,,,0.00,SSEC-RIG,2013-06-10 00:20:00,
2013-06-09 19:25:00,73.2,56.9,29.77,SE,129,19.3,24.2,56,0.00,,,0.00,SSEC-RIG,2013-06-10 00:25:00,
2013-06-09 19:30:00,73.1,57.3,29.78,SE,138,13.7,23.0,57,0.00,,,0.00,SSEC-RIG,2013-06-10 00:30:00,
2013-06-09 19:35:00,73.0,56.0,29.79,South,170,16.9,21.2,54,0.00,,,0.00,SSEC-RIG,2013-06-10 00:35:00,
2013-06-09 19:40:00,71.1,57.9,29.79,SSW,202,19.9,26.3,62,0.00,,,0.00,SSEC-RIG,2013-06-10 00:40:00,
2013-06-09 19:45:00,68.2,60.1,29.80,SSW,202,19.1,24.9,74,0.01,,,0.01,SSEC-RIG,2013-06-10 00:45:00,
2013-06-09 19:50:00,66.6,61.2,29.80,South,191,14.1,18.8,82,0.03,,,0.04,SSEC-RIG,2013-06-10 00:50:00,
2013-06-09 19:55:00,66.1,60.9,29.80,South,178,11.5,-999.0,82,0.01,,,0.05,SSEC-RIG,2013-06-10 00:55:00,
2013-06-09 20:00:00,65.8,61.4,29.80,South,182,10.3,-999.0,84,0.01,,,0.06,SSEC-RIG,2013-06-10 01:00:00,
2013-06-09 20:05:00,65.6,61.6,29.81,South,172,9.1,-999.0,86,0.00,,,0.06,SSEC-RIG,2013-06-10 01:05:00,
2013-06-09 20:10:00,65.6,61.3,29.81,South,171,10.1,-999.0,85,0.00,,,0.06,SSEC-RIG,2013-06-10 01:10:00,
2013-06-09 20:20:00,65.9,62.2,29.80,SSE,160,4.7,-999.0,87,0.00,,,0.06,SSEC-RIG,2013-06-10 01:20:00,
2013-06-09 20:25:00,65.9,61.9,29.80,SSE,168,3.4,-999.0,86,0.00,,,0.06,SSEC-RIG,2013-06-10 01:25:00,
2013-06-09 20:30:00,65.8,62.0,29.80,SSW,205,2.4,-999.0,87,0.00,,,0.06,SSEC-RIG,2013-06-10 01:30:00,
2013-06-09 20:35:00,65.7,61.6,29.80,South,185,3.5,-999.0,86,0.00,,,0.06,SSEC-RIG,2013-06-10 01:35:00,
2013-06-09 20:40:00,65.8,62.0,29.80,ESE,114,1.3,-999.0,87,0.00,,,0.06,SSEC-RIG,2013-06-10 01:40:00,
2013-06-09 20:45:00,65.7,61.5,29.80,SSW,198,3.4,-999.0,85,0.00,,,0.06,SSEC-RIG,2013-06-10 01:45:00,
2013-06-09 20:50:00,65.8,61.2,29.80,SSW,196,4.4,-999.0,84,0.00,,,0.06,SSEC-RIG,2013-06-10 01:50:00,
2013-06-09 20:55:00,65.8,61.4,29.81,South,180,7.7,-999.0,84,0.03,,,0.09,SSEC-RIG,2013-06-10 01:55:00,
2013-06-09 21:00:00,65.6,61.4,29.81,South,175,9.0,-999.0,85,0.06,,,0.15,SSEC-RIG,2013-06-10 02:00:00,
2013-06-09 21:05:00,66.3,62.5,29.82,SSE,148,8.7,-999.0,87,0.00,,,0.15,SSEC-RIG,2013-06-10 02:05:00,
2013-06-09 21:10:00,65.1,62.6,29.82,South,174,9.6,-999.0,90,0.10,,,0.25,SSEC-RIG,2013-06-10 02:10:00,
2013-06-09 21:20:00,65.5,64.2,29.82,SE,144,6.7,-999.0,95,0.00,,,0.30,SSEC-RIG,2013-06-10 02:20:00,
2013-06-09 21:25:00,64.6,62.0,29.82,South,187,4.5,-999.0,90,0.00,,,0.30,SSEC-RIG,2013-06-10 02:25:00,
2013-06-09 21:30:00,65.3,62.6,29.82,SE,137,3.7,-999.0,90,0.00,,,0.30,SSEC-RIG,2013-06-10 02:30:00,
2013-06-09 21:35:00,65.8,64.0,29.82,SE,144,5.8,-999.0,93,0.00,,,0.30,SSEC-RIG,2013-06-10 02:35:00,
2013-06-09 21:40:00,65.6,64.1,29.83,SE,131,10.1,-999.0,94,0.00,,,0.31,SSEC-RIG,2013-06-10 02:40:00,
2013-06-09 21:45:00,65.1,63.3,29.83,SE,126,11.1,-999.0,93,0.00,,,0.31,SSEC-RIG,2013-06-10 02:45:00,
2013-06-09 21:50:00,65.1,63.7,29.83,SE,137,8.0,-999.0,94,0.00,,,0.32,SSEC-RIG,2013-06-10 02:50:00,
2013-06-09 21:55:00,65.2,64.0,29.83,SE,136,6.9,-999.0,95,0.01,,,0.33,SSEC-RIG,2013-06-10 02:55:00,
2013-06-09 22:00:00,65.0,63.5,29.83,SE,131,8.7,-999.0,94,0.00,,,0.33,SSEC-RIG,2013-06-10 03:00:00,
2013-06-09 22:10:00,65.4,62.9,29.83,SE,128,3.4,-999.0,91,0.00,,,0.34,SSEC-RIG,2013-06-10 03:10:00,
2013-06-09 22:15:00,65.6,63.6,29.83,SE,141,4.3,-999.0,92,0.00,,,0.34,SSEC-RIG,2013-06-10 03:15:00,
2013-06-09 22:20:00,65.6,63.3,29.83,SE,126,5.8,-999.0,91,0.00,,,0.34,SSEC-RIG,2013-06-10 03:20:00,
2013-06-09 22:25:00,65.5,63.7,29.83,SE,133,6.4,-999.0,93,0.00,,,0.34,SSEC-RIG,2013-06-10 03:25:00,
2013-06-09 22:30:00,65.3,64.0,29.83,SE,133,5.5,-999.0,95,0.00,,,0.34,SSEC-RIG,2013-06-10 03:30:00,
2013-06-09 22:35:00,65.3,64.0,29.83,SE,136,6.3,-999.0,94,0.00,,,0.34,SSEC-RIG,2013-06-10 03:35:00,
2013-06-09 22:40:00,65.3,63.8,29.83,SSE,154,5.7,-999.0,93,0.00,,,0.34,SSEC-RIG,2013-06-10 03:40:00,
2013-06-09 22:45:00,64.4,62.9,29.83,SSE,165,5.4,-999.0,94,0.00,,,0.34,SSEC-RIG,2013-06-10 03:45:00,
2013-06-09 22:50:00,64.3,62.3,29.83,South,180,6.2,-999.0,92,0.01,,,0.35,SSEC-RIG,2013-06-10 03:50:00,
2013-06-09 22:55:00,64.6,61.9,29.83,South,179,5.8,-999.0,90,0.00,,,0.35,SSEC-RIG,2013-06-10 03:55:00,
2013-06-09 23:00:00,64.7,61.9,29.83,South,175,4.9,-999.0,89,0.00,,,0.35,SSEC-RIG,2013-06-10 04:00:00,
2013-06-09 23:05:00,64.6,62.2,29.82,South,184,4.9,-999.0,91,0.00,,,0.35,SSEC-RIG,2013-06-10 04:05:00,
2013-06-09 23:10:00,64.8,61.5,29.82,South,188,5.3,-999.0,88,0.00,,,0.35,SSEC-RIG,2013-06-10 04:10:00,
2013-06-09 23:15:00,64.9,61.7,29.82,SSW,193,4.9,-999.0,88,0.00,,,0.35,SSEC-RIG,2013-06-10 04:15:00,
2013-06-09 23:20:00,64.9,61.7,29.82,SSW,198,5.0,-999.0,88,0.00,,,0.35,SSEC-RIG,2013-06-10 04:20:00,
2013-06-09 23:30:00,64.9,61.5,29.82,SW,219,5.0,-999.0,88,0.00,,,0.35,SSEC-RIG,2013-06-10 04:30:00,
2013-06-09 23:35:00,64.9,61.6,29.82,SW,223,4.1,-999.0,88,0.00,,,0.35,SSEC-RIG,2013-06-10 04:35:00,
2013-06-09 23:40:00,64.9,61.3,29.81,SSW,210,3.4,-999.0,87,0.00,,,0.35,SSEC-RIG,2013-06-10 04:40:00,
2013-06-09 23:45:00,65.3,60.9,29.81,SSW,201,2.5,-999.0,85,0.00,,,0.35,SSEC-RIG,2013-06-10 04:45:00,
2013-06-09 23:50:00,65.4,60.9,29.81,South,190,1.6,-999.0,84,0.00,,,0.35,SSEC-RIG,2013-06-10 04:50:00,
2013-06-09 23:55:00,65.1,62.1,29.81,SE,127,1.1,-999.0,89,0.00,,,0.35,SSEC-RIG,2013-06-10 04:55:00,